Time,TemperatureF,DewpointF,PressureIn,WindDirection,WindDirectionDegrees,WindSpeedMPH,WindSpeedGustMPH,Humidity,HourlyPrecipIn,Conditions,Clouds,dailyrainin,SoftwareType,DateUTC
2013-06-15 00:03:00,73.0,63.9,29.94,SE,135,12.7,12.7,73,0.10,RA,,0.00,WeatherDisplay:10.37,2013-06-15 05:03:00,
2013-06-15 00:08:00,73.6,64.0,29.93,SE,135,9.2,10.1,72,0.04,RA,,0.02,WeatherDisplay:10.37,2013-06-15 05:08:00,
2013-06-15 00:13:00,73.6,64.0,29.93,SE,135,12.7,12.7,72,0.04,RA,,0.04,WeatherDisplay:10.37,2013-06-15 05:13:00,
2013-06-15 00:18:00,73.2,64.0,29.91,SE,135,15.0,15.9,73,0.04,RA,,0.04,WeatherDisplay:10.37,2013-06-15 05:18:00,
2013-06-15 00:23:00,72.5,63.7,29.89,SE,135,19.7,21.1,74,0.04,CLR,,0.04,WeatherDisplay:10.37,2013-06-15 05:23:00,
2013-06-15 00:28:00,72.0,64.0,29.87,SE,135,19.6,19.6,76,0.04,CLR,,0.04,WeatherDisplay:10.37,2013-06-15 05:28:00,
2013-06-15 00:33:00,71.6,64.0,29.85,ESE,112,16.1,16.8,77,0.06,RA,,0.06,WeatherDisplay:10.37,2013-06-15 05:33:00,
2013-06-15 00:38:00,71.8,64.2,29.84,East,90,14.9,15.2,77,0.08,RA,,0.08,WeatherDisplay:10.37,2013-06-15 05:38:00,
2013-06-15 00:43:00,71.4,63.8,29.85,ESE,112,18.4,18.4,77,0.08,RA,,0.08,WeatherDisplay:10.37,2013-06-15 05:43:00,
2013-06-15 00:48:00,71.4,63.8,29.85,ESE,112,12.7,13.3,77,0.08,,,0.08,WeatherDisplay:10.37,2013-06-15 05:48:00,
2013-06-15 00:53:00,71.2,63.7,29.87,ENE,68,9.2,9.3,77,0.08,CLR,,0.08,WeatherDisplay:10.37,2013-06-15 05:53:00,
2013-06-15 00:58:00,71.1,64.2,29.90,NE,45,0.0,0.0,79,0.08,CLR,,0.08,WeatherDisplay:10.37,2013-06-15 05:58:00,
2013-06-15 01:03:00,70.7,63.9,29.91,NNE,22,3.5,3.5,79,0.08,CLR,,0.08,WeatherDisplay:10.37,2013-06-15 06:03:00,
2013-06-15 01:08:00,70.5,64.4,29.93,ENE,68,0.0,0.0,81,0.06,CLR,,0.08,WeatherDisplay:10.37,2013-06-15 06:08:00,
2013-06-15 01:13:00,70.2,64.1,29.92,ENE,68,2.3,2.3,81,0.06,RA,,0.10,WeatherDisplay:10.37,2013-06-15 06:13:00,
2013-06-15 01:18:00,70.2,64.4,29.92,ENE,68,3.8,4.1,82,0.06,RA,,0.10,WeatherDisplay:10.37,2013-06-15 06:18:00,
2013-06-15 01:23:00,69.8,64.4,29.91,ENE,68,3.5,4.7,83,0.08,RA,,0.12,WeatherDisplay:10.37,2013-06-15 06:23:00,
2013-06-15 01:28:00,69.4,64.4,29.89,East,90,16.1,16.1,84,0.08,RA,,0.12,WeatherDisplay:10.37,2013-06-15 06:28:00,
2013-06-15 01:33:00,69.4,64.4,29.89,ESE,112,9.5,10.1,84,0.06,CLR,,0.12,WeatherDisplay:10.37,2013-06-15 06:33:00,
2013-06-15 01:38:00,70.0,64.9,29.92,SE,135,0.0,0.0,84,0.04,CLR,,0.12,WeatherDisplay:10.37,2013-06-15 06:38:00,
2013-06-15 01:43:00,70.0,64.9,29.92,ENE,68,8.1,8.7,84,0.04,CLR,,0.12,WeatherDisplay:10.37,2013-06-15 06:43:00,
2013-06-15 01:48:00,70.0,64.6,29.91,ENE,68,6.9,6.9,83,0.06,RA,,0.14,WeatherDisplay:10.37,2013-06-15 06:48:00,
2013-06-15 01:53:00,70.3,64.2,29.89,East,90,6.9,6.9,81,0.06,RA,,0.14,WeatherDisplay:10.37,2013-06-15 06:53:00,
2013-06-15 01:58:00,70.7,64.2,29.86,ENE,68,6.9,6.9,80,0.06,CLR,,0.14,WeatherDisplay:10.37,2013-06-15 06:58:00,
2013-06-15 02:03:00,70.3,64.2,29.85,East,90,13.8,15.0,81,0.06,CLR,,0.14,WeatherDisplay:10.37,2013-06-15 07:03:00,
2013-06-15 02:08:00,69.8,64.4,29.84,ESE,112,14.3,14.3,83,0.06,CLR,,0.14,WeatherDisplay:10.37,2013-06-15 07:08:00,
2013-06-15 02:13:00,69.8,64.4,29.84,ENE,68,13.8,13.8,83,0.04,CLR,,0.14,WeatherDisplay:10.37,2013-06-15 07:13:00,
2013-06-15 02:18:00,69.4,64.4,29.86,SE,135,11.5,12.2,84,0.04,CLR,,0.14,WeatherDisplay:10.37,2013-06-15 07:18:00,
2013-06-15 02:23:00,69.3,64.6,29.88,SSW,202,12.7,13.9,85,0.02,CLR,,0.14,WeatherDisplay:10.37,2013-06-15 07:23:00,
2013-06-15 02:28:00,69.3,64.2,29.88,South,180,10.4,10.7,84,0.02,CLR,,0.14,WeatherDisplay:10.37,2013-06-15 07:28:00,
2013-06-15 02:33:00,69.3,64.2,29.88,South,180,8.1,8.4,84,0.02,CLR,,0.14,WeatherDisplay:10.37,2013-06-15 07:33:00,
2013-06-15 02:38:00,69.4,64.4,29.89,SSW,202,11.5,11.5,84,0.02,CLR,,0.14,WeatherDisplay:10.37,2013-06-15 07:38:00,
2013-06-15 02:43:00,69.3,64.2,29.88,SW,225,10.4,10.7,84,0.02,CLR,,0.14,WeatherDisplay:10.37,2013-06-15 07:43:00,
2013-06-15 02:48:00,68.9,63.9,29.88,SW,225,9.5,10.1,84,0.00,CLR,,0.14,WeatherDisplay:10.37,2013-06-15 07:48:00,
2013-06-15 02:53:00,68.9,63.9,29.88,South,180,11.5,11.5,84,0.00,CLR,,0.14,WeatherDisplay:10.37,2013-06-15 07:53:00,
2013-06-15 02:58:00,68.9,64.5,29.89,SSW,202,9.2,9.3,86,0.00,CLR,,0.14,WeatherDisplay:10.37,2013-06-15 07:58:00,
2013-06-15 03:03:00,68.7,64.4,29.88,SW,225,9.2,9.8,86,0.00,CLR,,0.14,WeatherDisplay:10.37,2013-06-15 08:03:00,
2013-06-15 03:09:00,68.4,64.3,29.89,SSW,202,6.9,6.9,87,0.00,CLR,,0.14,WeatherDisplay:10.37,2013-06-15 08:09:00,
2013-06-15 03:14:00,68.2,64.2,29.89,WSW,248,8.1,9.0,87,0.00,CLR,,0.14,WeatherDisplay:10.37,2013-06-15 08:14:00,
2013-06-15 03:19:00,67.6,64.0,29.88,SSW,202,13.8,13.8,88,0.00,CLR,,0.14,WeatherDisplay:10.37,2013-06-15 08:19:00,
2013-06-15 03:24:00,67.5,64.1,29.88,South,180,4.6,4.6,89,0.00,CLR,,0.14,WeatherDisplay:10.37,2013-06-15 08:24:00,
2013-06-15 03:29:00,67.5,64.1,29.88,South,180,0.0,0.0,89,0.00,CLR,,0.14,WeatherDisplay:10.37,2013-06-15 08:29:00,
2013-06-15 03:34:00,67.1,64.1,29.88,SSW,202,9.2,9.2,90,0.00,CLR,,0.14,WeatherDisplay:10.37,2013-06-15 08:34:00,
2013-06-15 03:39:00,67.1,64.1,29.88,SSW,202,8.1,8.4,90,0.00,CLR,,0.14,WeatherDisplay:10.37,2013-06-15 08:39:00,
2013-06-15 03:44:00,66.9,64.2,29.88,SW,225,8.1,8.7,91,0.00,CLR,,0.14,WeatherDisplay:10.37,2013-06-15 08:44:00,
2013-06-15 03:49:00,66.9,64.5,29.87,SSW,202,6.9,7.8,92,0.00,CLR,,0.14,WeatherDisplay:10.37,2013-06-15 08:49:00,
2013-06-15 03:54:00,66.6,64.2,29.87,SSW,202,9.5,10.1,92,0.00,CLR,,0.14,WeatherDisplay:10.37,2013-06-15 08:54:00,
2013-06-15 03:59:00,66.6,64.5,29.88,SSW,202,5.8,6.1,93,0.00,CLR,,0.14,WeatherDisplay:10.37,2013-06-15 08:59:00,
2013-06-15 04:04:00,66.6,64.5,29.87,SSW,202,1.9,1.9,93,0.00,CLR,,0.14,WeatherDisplay:10.37,2013-06-15 09:04:00,
2013-06-15 04:09:00,66.4,64.3,29.87,SSW,202,8.1,8.7,93,0.00,CLR,,0.14,WeatherDisplay:10.37,2013-06-15 09:09:00,
2013-06-15 04:14:00,66.6,64.5,29.87,SSE,158,0.0,0.0,93,0.00,CLR,,0.14,WeatherDisplay:10.37,2013-06-15 09:14:00,
2013-06-15 04:19:00,66.6,64.5,29.87,SSE,158,0.0,0.0,93,0.00,CLR,,0.14,WeatherDisplay:10.37,2013-06-15 09:19:00,
2013-06-15 04:24:00,66.4,64.6,29.87,SE,135,0.0,0.0,94,0.00,CLR,,0.14,WeatherDisplay:10.37,2013-06-15 09:24:00,
2013-06-15 04:29:00,66.0,64.2,29.88,ESE,112,1.4,0.0,94,0.00,CLR,,0.14,WeatherDisplay:10.37,2013-06-15 09:29:00,
2013-06-15 04:34:00,65.7,63.9,29.87,ESE,112,0.0,0.0,94,0.00,CLR,,0.14,WeatherDisplay:10.37,2013-06-15 09:34:00,
2013-06-15 04:39:00,65.3,63.8,29.87,SSE,158,0.0,0.0,95,0.00,CLR,,0.14,WeatherDisplay:10.37,2013-06-15 09:39:00,
2013-06-15 04:44:00,65.1,64.0,29.86,SE,135,0.0,0.0,96,0.00,CLR,,0.14,WeatherDisplay:10.37,2013-06-15 09:44:00,
2013-06-15 04:49:00,64.9,64.1,29.86,ESE,112,2.3,2.3,97,0.00,CLR,,0.14,WeatherDisplay:10.37,2013-06-15 09:49:00,
2013-06-15 04:54:00,64.8,63.9,29.86,SSE,158,0.0,0.6,97,0.00,CLR,,0.14,WeatherDisplay:10.37,2013-06-15 09:54:00,
2013-06-15 04:59:00,64.8,63.9,29.86,SSE,158,0.0,0.0,97,0.00,CLR,,0.14,WeatherDisplay:10.37,2013-06-15 09:59:00,
2013-06-15 05:04:00,64.6,64.0,29.86,SSE,158,0.0,0.0,98,0.00,CLR,,0.14,WeatherDisplay:10.37,2013-06-15 10:04:00,
2013-06-15 05:09:00,64.6,64.0,29.86,SSE,158,0.0,0.0,98,0.00,CLR,,0.14,WeatherDisplay:10.37,2013-06-15 10:09:00,
2013-06-15 05:14:00,64.6,64.0,29.87,SSE,158,0.0,0.0,98,0.00,CLR,,0.14,WeatherDisplay:10.37,2013-06-15 10:14:00,
2013-06-15 05:19:00,64.8,64.2,29.87,SE,135,0.0,0.0,98,0.00,CLR,,0.14,WeatherDisplay:10.37,2013-06-15 10:19:00,
2013-06-15 05:24:00,64.2,63.6,29.88,SE,135,0.0,0.0,98,0.00,CLR,,0.14,WeatherDisplay:10.37,2013-06-15 10:24:00,
2013-06-15 05:29:00,64.0,63.5,29.88,SE,135,0.0,0.0,98,0.00,CLR,,0.14,WeatherDisplay:10.37,2013-06-15 10:29:00,
2013-06-15 05:34:00,63.9,63.6,29.88,SE,135,0.0,0.0,99,0.00,CLR,,0.14,WeatherDisplay:10.37,2013-06-15 10:34:00,
2013-06-15 05:39:00,63.9,63.6,29.88,SE,135,0.0,0.0,99,0.00,CLR,,0.14,WeatherDisplay:10.37,2013-06-15 10:39:00,
2013-06-15 05:44:00,63.9,63.6,29.88,ESE,112,0.0,0.0,99,0.00,CLR,,0.14,WeatherDisplay:10.37,2013-06-15 10:44:00,
2013-06-15 05:49:00,63.7,63.4,29.88,ESE,112,0.0,0.0,99,0.00,CLR,,0.14,WeatherDisplay:10.37,2013-06-15 10:49:00,
2013-06-15 05:54:00,63.7,63.7,29.89,ESE,112,0.0,0.0,100,0.00,CLR,,0.14,WeatherDisplay:10.37,2013-06-15 10:54:00,
2013-06-15 05:59:00,63.7,63.7,29.89,SE,135,0.0,0.0,100,0.00,CLR,,0.14,WeatherDisplay:10.37,2013-06-15 10:59:00,
2013-06-15 06:04:00,63.9,63.9,29.89,SE,135,1.1,0.0,100,0.00,CLR,,0.14,WeatherDisplay:10.37,2013-06-15 11:04:00,
2013-06-15 06:09:00,63.7,63.7,29.89,ESE,112,0.0,0.0,100,0.00,CLR,,0.14,WeatherDisplay:10.37,2013-06-15 11:09:00,
2013-06-15 06:14:00,63.5,63.5,29.88,ESE,112,0.0,0.0,100,0.00,CLR,,0.14,WeatherDisplay:10.37,2013-06-15 11:14:00,
2013-06-15 06:19:00,63.5,63.5,29.88,ESE,112,2.3,0.0,100,0.00,CLR,,0.14,WeatherDisplay:10.37,2013-06-15 11:19:00,
2013-06-15 06:24:00,63.7,63.7,29.88,SE,135,1.1,1.1,100,0.00,CLR,,0.14,WeatherDisplay:10.37,2013-06-15 11:24:00,
2013-06-15 06:29:00,64.0,64.0,29.88,ESE,112,0.0,0.0,100,0.00,CLR,,0.14,WeatherDisplay:10.37,2013-06-15 11:29:00,
2013-06-15 06:34:00,64.0,64.0,29.88,ESE,112,0.0,0.0,100,0.00,CLR,,0.14,WeatherDisplay:10.37,2013-06-15 11:34:00,
2013-06-15 06:39:00,64.6,64.6,29.88,ESE,112,1.1,1.1,100,0.00,CLR,,0.14,WeatherDisplay:10.37,2013-06-15 11:39:00,
2013-06-15 06:44:00,65.3,65.3,29.88,ESE,112,0.0,0.0,100,0.00,CLR,,0.14,WeatherDisplay:10.37,2013-06-15 11:44:00,
2013-06-15 06:49:00,66.6,66.6,29.88,ESE,112,0.0,0.0,100,0.00,CLR,,0.14,WeatherDisplay:10.37,2013-06-15 11:49:00,
2013-06-15 06:54:00,68.0,68.0,29.88,ESE,112,3.2,3.2,100,0.00,CLR,,0.14,WeatherDisplay:10.37,2013-06-15 11:54:00,
2013-06-15 06:59:00,69.4,68.6,29.88,ESE,112,4.3,4.3,97,0.00,CLR,,0.14,WeatherDisplay:10.37,2013-06-15 11:59:00,
2013-06-15 07:04:00,70.7,68.9,29.88,East,90,4.9,5.2,94,0.00,CLR,,0.14,WeatherDisplay:10.37,2013-06-15 12:04:00,
2013-06-15 07:09:00,71.8,69.0,29.88,ESE,112,3.5,3.5,91,0.00,CLR,,0.14,WeatherDisplay:10.37,2013-06-15 12:09:00,
2013-06-15 07:14:00,73.4,69.0,29.89,ESE,112,6.8,6.8,86,0.00,CLR,,0.14,WeatherDisplay:10.37,2013-06-15 12:14:00,
2013-06-15 07:19:00,73.8,68.3,29.89,SE,135,8.1,8.1,83,0.00,CLR,,0.14,WeatherDisplay:10.37,2013-06-15 12:19:00,
2013-06-15 07:24:00,74.7,68.4,29.89,SE,135,6.9,7.4,81,0.00,CLR,,0.14,WeatherDisplay:10.37,2013-06-15 12:24:00,
2013-06-15 07:29:00,74.8,68.3,29.89,SE,135,6.9,6.9,80,0.00,CLR,,0.14,WeatherDisplay:10.37,2013-06-15 12:29:00,
2013-06-15 07:34:00,75.4,68.4,29.89,SE,135,4.6,0.0,79,0.00,CLR,,0.14,WeatherDisplay:10.37,2013-06-15 12:34:00,
2013-06-15 07:39:00,75.7,68.8,29.89,SE,135,3.5,3.7,79,0.00,CLR,,0.14,WeatherDisplay:10.37,2013-06-15 12:39:00,
2013-06-15 07:44:00,76.1,69.1,29.90,SSE,158,8.1,8.7,79,0.00,CLR,,0.14,WeatherDisplay:10.37,2013-06-15 12:44:00,
2013-06-15 07:49:00,76.3,68.5,29.89,SSE,158,9.2,9.5,77,0.00,CLR,,0.14,WeatherDisplay:10.37,2013-06-15 12:49:00,
2013-06-15 07:54:00,76.3,68.2,29.89,SSE,158,13.8,13.8,76,0.00,CLR,,0.14,WeatherDisplay:10.37,2013-06-15 12:54:00,
2013-06-15 07:59:00,76.3,68.2,29.88,SSE,158,11.9,11.9,76,0.00,CLR,,0.14,WeatherDisplay:10.37,2013-06-15 12:59:00,
2013-06-15 08:04:00,76.3,68.2,29.88,SE,135,11.5,11.5,76,0.00,CLR,,0.14,WeatherDisplay:10.37,2013-06-15 13:04:00,
2013-06-15 08:09:00,76.1,68.0,29.88,SSE,158,8.4,8.4,76,0.00,CLR,,0.14,WeatherDisplay:10.37,2013-06-15 13:09:00,
2013-06-15 08:14:00,75.4,67.7,29.88,SSE,158,8.1,8.2,77,0.00,CLR,,0.14,WeatherDisplay:10.37,2013-06-15 13:14:00,
2013-06-15 08:19:00,75.0,67.7,29.88,SSE,158,8.1,8.1,78,0.00,CLR,,0.14,WeatherDisplay:10.37,2013-06-15 13:19:00,
2013-06-15 08:24:00,74.5,67.2,29.89,SSE,158,7.0,7.0,78,0.00,CLR,,0.14,WeatherDisplay:10.37,2013-06-15 13:24:00,
2013-06-15 08:29:00,73.9,67.0,29.88,SSE,158,6.9,7.5,79,0.00,CLR,,0.14,WeatherDisplay:10.37,2013-06-15 13:29:00,
2013-06-15 08:34:00,73.0,66.5,29.88,SSE,158,6.9,6.9,80,0.00,CLR,,0.14,WeatherDisplay:10.37,2013-06-15 13:34:00,
2013-06-15 08:39:00,72.7,66.9,29.87,SSE,158,11.5,11.7,82,0.00,CLR,,0.14,WeatherDisplay:10.37,2013-06-15 13:39:00,
2013-06-15 08:44:00,73.6,68.4,29.87,South,180,11.9,12.7,84,0.00,CLR,,0.14,WeatherDisplay:10.37,2013-06-15 13:44:00,
2013-06-15 08:49:00,74.1,69.0,29.88,SSE,158,9.2,9.8,84,0.00,CLR,,0.14,WeatherDisplay:10.37,2013-06-15 13:49:00,
2013-06-15 08:54:00,75.4,69.5,29.89,SSE,158,10.4,10.4,82,0.00,CLR,,0.14,WeatherDisplay:10.37,2013-06-15 13:54:00,
2013-06-15 08:59:00,75.9,69.7,29.89,South,180,9.2,9.3,81,0.00,CLR,,0.14,WeatherDisplay:10.37,2013-06-15 13:59:00,
2013-06-15 09:04:00,76.5,69.5,29.89,South,180,11.5,11.9,79,0.00,CLR,,0.14,WeatherDisplay:10.37,2013-06-15 14:04:00,
2013-06-15 09:09:00,77.0,70.0,29.89,SSE,158,11.5,11.5,79,0.00,CLR,,0.14,WeatherDisplay:10.37,2013-06-15 14:09:00,
2013-06-15 09:14:00,77.2,69.8,29.89,SSW,202,11.5,12.2,78,0.00,CLR,,0.14,WeatherDisplay:10.37,2013-06-15 14:14:00,
2013-06-15 09:19:00,76.5,69.1,29.89,SSE,158,10.4,11.3,78,0.00,CLR,,0.14,WeatherDisplay:10.37,2013-06-15 14:19:00,
2013-06-15 09:24:00,75.6,69.0,29.90,South,180,4.6,7.7,80,0.00,CLR,,0.14,WeatherDisplay:10.37,2013-06-15 14:24:00,
2013-06-15 09:29:00,74.8,68.6,29.89,South,180,11.5,11.5,81,0.00,CLR,,0.14,WeatherDisplay:10.37,2013-06-15 14:29:00,
2013-06-15 09:34:00,74.5,68.6,29.89,SSW,202,8.1,8.4,82,0.00,CLR,,0.14,WeatherDisplay:10.37,2013-06-15 14:34:00,
2013-06-15 09:39:00,73.8,68.6,29.89,South,180,7.3,7.4,84,0.00,CLR,,0.14,WeatherDisplay:10.37,2013-06-15 14:39:00,
2013-06-15 09:44:00,73.6,68.8,29.90,South,180,9.2,9.8,85,0.00,CLR,,0.14,WeatherDisplay:10.37,2013-06-15 14:44:00,
2013-06-15 09:49:00,73.2,68.4,29.89,South,180,6.9,7.8,85,0.00,CLR,,0.14,WeatherDisplay:10.37,2013-06-15 14:49:00,
2013-06-15 09:54:00,73.0,68.6,29.89,SSW,202,8.1,8.6,86,0.00,CLR,,0.14,WeatherDisplay:10.37,2013-06-15 14:54:00,
2013-06-15 09:59:00,72.9,68.8,29.90,SSW,202,1.1,1.1,87,0.00,CLR,,0.14,WeatherDisplay:10.37,2013-06-15 14:59:00,
2013-06-15 10:04:00,72.9,69.1,29.90,SSW,202,6.2,6.2,88,0.00,CLR,,0.14,WeatherDisplay:10.37,2013-06-15 15:04:00,
2013-06-15 10:09:00,72.9,69.1,29.90,SW,225,8.4,9.0,88,0.00,CLR,,0.14,WeatherDisplay:10.37,2013-06-15 15:09:00,
2013-06-15 10:14:00,72.9,69.1,29.90,SSW,202,11.5,11.9,88,0.00,CLR,,0.14,WeatherDisplay:10.37,2013-06-15 15:14:00,
2013-06-15 10:19:00,72.9,69.1,29.90,SW,225,9.2,9.2,88,0.00,CLR,,0.14,WeatherDisplay:10.37,2013-06-15 15:19:00,
2013-06-15 10:24:00,72.7,68.9,29.91,WSW,248,9.2,9.2,88,0.00,CLR,,0.14,WeatherDisplay:10.37,2013-06-15 15:24:00,
2013-06-15 10:29:00,72.7,68.6,29.93,West,270,9.2,9.8,87,0.00,CLR,,0.14,WeatherDisplay:10.37,2013-06-15 15:29:00,
2013-06-15 10:34:00,72.5,68.4,29.93,WNW,292,9.2,9.8,87,0.00,CLR,,0.14,WeatherDisplay:10.37,2013-06-15 15:34:00,
2013-06-15 10:39:00,72.3,68.9,29.94,NW,315,9.2,9.2,89,0.00,CLR,,0.14,WeatherDisplay:10.37,2013-06-15 15:39:00,
2013-06-15 10:44:00,72.0,68.5,29.92,NNW,338,0.0,0.0,89,0.02,RA,,0.16,WeatherDisplay:10.37,2013-06-15 15:44:00,
2013-06-15 10:49:00,71.4,68.3,29.87,NNW,338,6.9,7.0,90,0.02,RA,,0.16,WeatherDisplay:10.37,2013-06-15 15:49:00,
2013-06-15 10:54:00,71.1,68.3,29.87,North,0,1.6,1.7,91,0.04,RA,,0.18,WeatherDisplay:10.37,2013-06-15 15:54:00,
2013-06-15 10:59:00,70.9,68.1,29.86,NE,45,0.0,0.0,91,0.04,RA,,0.18,WeatherDisplay:10.37,2013-06-15 15:59:00,
2013-06-15 11:04:00,70.7,68.3,29.87,NNE,22,0.0,0.0,92,0.06,RA,,0.20,WeatherDisplay:10.37,2013-06-15 16:04:00,
2013-06-15 11:09:00,70.7,68.3,29.89,South,180,0.0,0.0,92,0.06,RA,,0.20,WeatherDisplay:10.37,2013-06-15 16:09:00,
2013-06-15 11:14:00,71.1,68.9,29.90,SSE,158,2.3,2.3,93,0.06,CLR,,0.20,WeatherDisplay:10.37,2013-06-15 16:14:00,
2013-06-15 11:19:00,71.6,69.5,29.91,South,180,4.6,4.6,93,0.06,CLR,,0.20,WeatherDisplay:10.37,2013-06-15 16:19:00,
2013-06-15 11:24:00,72.3,70.2,29.91,WSW,248,4.6,4.6,93,0.06,CLR,,0.20,WeatherDisplay:10.37,2013-06-15 16:24:00,
2013-06-15 11:29:00,73.2,70.1,29.91,West,270,5.8,5.8,90,0.06,CLR,,0.20,WeatherDisplay:10.37,2013-06-15 16:29:00,
2013-06-15 11:34:00,74.1,70.3,29.92,WSW,248,8.4,9.0,88,0.06,CLR,,0.20,WeatherDisplay:10.37,2013-06-15 16:34:00,
2013-06-15 11:39:00,74.3,69.8,29.92,WSW,248,9.2,9.8,86,0.06,CLR,,0.20,WeatherDisplay:10.37,2013-06-15 16:39:00,
2013-06-15 11:44:00,74.8,70.7,29.92,SW,225,8.1,8.7,87,0.04,CLR,,0.20,WeatherDisplay:10.37,2013-06-15 16:44:00,
2013-06-15 11:49:00,76.6,72.5,29.92,SSW,202,8.7,8.9,87,0.04,CLR,,0.20,WeatherDisplay:10.37,2013-06-15 16:49:00,
2013-06-15 11:54:00,77.9,73.4,29.93,WSW,248,10.8,11.6,86,0.02,CLR,,0.20,WeatherDisplay:10.37,2013-06-15 16:54:00,
2013-06-15 11:59:00,79.3,74.1,29.93,SW,225,5.8,6.7,84,0.02,CLR,,0.20,WeatherDisplay:10.37,2013-06-15 16:59:00,
2013-06-15 12:04:00,81.0,74.2,29.93,SW,225,7.0,7.5,80,0.00,CLR,,0.20,WeatherDisplay:10.37,2013-06-15 17:04:00,
2013-06-15 12:09:00,81.9,74.7,29.92,SW,225,9.2,9.2,79,0.00,CLR,,0.20,WeatherDisplay:10.37,2013-06-15 17:09:00,
2013-06-15 12:14:00,82.8,75.2,29.92,WSW,248,8.9,8.9,78,0.00,CLR,,0.20,WeatherDisplay:10.37,2013-06-15 17:14:00,
2013-06-15 12:19:00,82.8,74.0,29.92,West,270,9.2,9.2,75,0.00,CLR,,0.20,WeatherDisplay:10.37,2013-06-15 17:19:00,
2013-06-15 12:24:00,82.6,73.4,29.92,West,270,10.4,11.0,74,0.00,CLR,,0.20,WeatherDisplay:10.37,2013-06-15 17:24:00,
2013-06-15 12:29:00,82.0,72.5,29.92,WSW,248,11.5,11.9,73,0.00,CLR,,0.20,WeatherDisplay:10.37,2013-06-15 17:29:00,
2013-06-15 12:34:00,82.0,72.9,29.92,West,270,8.1,8.2,74,0.00,CLR,,0.20,WeatherDisplay:10.37,2013-06-15 17:34:00,
2013-06-15 12:39:00,82.2,73.1,29.92,WSW,248,8.1,8.4,74,0.00,CLR,,0.20,WeatherDisplay:10.37,2013-06-15 17:39:00,
2013-06-15 12:44:00,82.6,73.0,29.92,NW,315,11.5,11.5,73,0.00,CLR,,0.20,WeatherDisplay:10.37,2013-06-15 17:44:00,
2013-06-15 12:49:00,83.1,73.6,29.92,West,270,0.0,0.0,73,0.00,CLR,,0.20,WeatherDisplay:10.37,2013-06-15 17:49:00,
2013-06-15 12:54:00,83.7,74.1,29.92,NNW,338,0.0,0.0,73,0.00,CLR,,0.20,WeatherDisplay:10.37,2013-06-15 17:54:00,
2013-06-15 12:59:00,83.7,74.1,29.92,North,0,0.0,0.0,73,0.00,CLR,,0.20,WeatherDisplay:10.37,2013-06-15 17:59:00,
2013-06-15 13:04:00,83.7,74.1,29.92,North,0,0.0,0.0,73,0.00,CLR,,0.20,WeatherDisplay:10.37,2013-06-15 18:04:00,
2013-06-15 13:09:00,82.9,73.8,29.91,North,0,0.0,0.0,74,0.00,CLR,,0.20,WeatherDisplay:10.37,2013-06-15 18:09:00,
2013-06-15 13:14:00,82.6,73.4,29.90,NNE,22,0.0,0.0,74,0.00,CLR,,0.20,WeatherDisplay:10.37,2013-06-15 18:14:00,
2013-06-15 13:19:00,82.8,73.6,29.90,NNE,22,0.0,0.0,74,0.00,CLR,,0.20,WeatherDisplay:10.37,2013-06-15 18:19:00,
2013-06-15 13:24:00,83.1,74.0,29.90,NE,45,0.0,0.0,74,0.00,CLR,,0.20,WeatherDisplay:10.37,2013-06-15 18:24:00,
2013-06-15 13:29:00,83.1,74.0,29.89,NE,45,0.0,0.0,74,0.00,CLR,,0.20,WeatherDisplay:10.37,2013-06-15 18:29:00,
2013-06-15 13:34:00,82.8,74.0,29.89,NE,45,0.0,0.0,75,0.00,CLR,,0.20,WeatherDisplay:10.37,2013-06-15 18:34:00,
2013-06-15 13:39:00,82.6,73.4,29.90,NNE,22,0.0,0.0,74,0.00,CLR,,0.20,WeatherDisplay:10.37,2013-06-15 18:39:00,
2013-06-15 13:44:00,82.6,73.4,29.89,NE,45,0.0,0.0,74,0.00,CLR,,0.20,WeatherDisplay:10.37,2013-06-15 18:44:00,
2013-06-15 13:49:00,81.9,72.8,29.89,ENE,68,0.0,0.0,74,0.00,CLR,,0.20,WeatherDisplay:10.37,2013-06-15 18:49:00,
2013-06-15 13:54:00,81.5,72.8,29.89,NNE,22,0.0,0.0,75,0.00,CLR,,0.20,WeatherDisplay:10.37,2013-06-15 18:54:00,
2013-06-15 13:59:00,81.1,72.9,29.90,NNE,22,0.0,0.0,76,0.00,CLR,,0.20,WeatherDisplay:10.37,2013-06-15 18:59:00,
2013-06-15 14:04:00,80.8,72.5,29.91,NNE,22,0.0,0.0,76,0.00,CLR,,0.20,WeatherDisplay:10.37,2013-06-15 19:04:00,
2013-06-15 14:09:00,80.8,72.9,29.91,NNE,22,0.0,0.0,77,0.00,CLR,,0.20,WeatherDisplay:10.37,2013-06-15 19:09:00,
2013-06-15 14:14:00,80.8,72.9,29.91,NNE,22,0.0,0.0,77,0.00,CLR,,0.20,WeatherDisplay:10.37,2013-06-15 19:14:00,
2013-06-15 14:19:00,80.8,72.9,29.91,ENE,68,0.0,0.0,77,0.00,CLR,,0.20,WeatherDisplay:10.37,2013-06-15 19:19:00,
2013-06-15 14:24:00,80.8,72.5,29.91,ENE,68,0.0,0.0,76,0.00,CLR,,0.20,WeatherDisplay:10.37,2013-06-15 19:24:00,
2013-06-15 14:29:00,80.8,72.5,29.91,ENE,68,0.0,0.0,76,0.00,CLR,,0.20,WeatherDisplay:10.37,2013-06-15 19:29:00,
2013-06-15 14:34:00,80.4,71.8,29.91,ENE,68,0.0,0.0,75,0.00,CLR,,0.20,WeatherDisplay:10.37,2013-06-15 19:34:00,
2013-06-15 14:39:00,80.2,72.4,29.92,ENE,68,0.0,0.0,77,0.00,CLR,,0.20,WeatherDisplay:10.37,2013-06-15 19:39:00,
2013-06-15 14:44:00,80.4,72.9,29.92,SE,135,0.0,0.0,78,0.00,CLR,,0.20,WeatherDisplay:10.37,2013-06-15 19:44:00,
2013-06-15 14:49:00,81.0,73.5,29.92,SE,135,0.0,0.0,78,0.00,CLR,,0.20,WeatherDisplay:10.37,2013-06-15 19:49:00,
2013-06-15 14:54:00,81.3,73.4,29.92,SE,135,0.0,0.0,77,0.00,CLR,,0.20,WeatherDisplay:10.37,2013-06-15 19:54:00,
2013-06-15 14:59:00,81.9,73.5,29.92,SE,135,0.0,0.0,76,0.00,CLR,,0.20,WeatherDisplay:10.37,2013-06-15 19:59:00,
2013-06-15 15:04:00,81.9,73.5,29.91,SSE,158,0.0,0.0,76,0.00,CLR,,0.20,WeatherDisplay:10.37,2013-06-15 20:04:00,
2013-06-15 15:09:00,81.5,73.2,29.90,South,180,0.0,0.0,76,0.00,CLR,,0.20,WeatherDisplay:10.37,2013-06-15 20:09:00,
2013-06-15 15:14:00,81.3,73.4,29.90,South,180,0.0,0.0,77,0.00,CLR,,0.20,WeatherDisplay:10.37,2013-06-15 20:14:00,
2013-06-15 15:19:00,81.5,73.6,29.89,SSE,158,0.0,0.0,77,0.00,CLR,,0.20,WeatherDisplay:10.37,2013-06-15 20:19:00,
2013-06-15 15:24:00,81.3,73.8,29.88,South,180,3.5,3.5,78,0.00,CLR,,0.20,WeatherDisplay:10.37,2013-06-15 20:24:00,
2013-06-15 15:29:00,81.1,73.6,29.87,South,180,5.9,6.4,78,0.00,CLR,,0.20,WeatherDisplay:10.37,2013-06-15 20:29:00,
2013-06-15 15:35:00,81.3,73.8,29.87,South,180,10.5,10.5,78,0.00,CLR,,0.20,WeatherDisplay:10.37,2013-06-15 20:35:00,
2013-06-15 15:40:00,81.1,73.2,29.86,South,180,11.5,11.5,77,0.00,CLR,,0.20,WeatherDisplay:10.37,2013-06-15 20:40:00,
2013-06-15 15:45:00,81.0,73.1,29.86,SSW,202,11.5,12.4,77,0.00,CLR,,0.20,WeatherDisplay:10.37,2013-06-15 20:45:00,
2013-06-15 15:50:00,80.6,72.7,29.87,SSE,158,3.5,3.5,77,0.00,CLR,,0.20,WeatherDisplay:10.37,2013-06-15 20:50:00,
2013-06-15 15:55:00,80.6,72.7,29.87,South,180,3.5,3.5,77,0.00,CLR,,0.20,WeatherDisplay:10.37,2013-06-15 20:55:00,
2013-06-15 16:00:00,80.4,72.5,29.86,SSW,202,6.9,7.8,77,0.00,CLR,,0.20,WeatherDisplay:10.37,2013-06-15 21:00:00,
2013-06-15 16:05:00,80.6,72.7,29.86,SW,225,10.5,10.5,77,0.00,CLR,,0.20,WeatherDisplay:10.37,2013-06-15 21:05:00,
2013-06-15 16:10:00,80.4,72.5,29.87,SW,225,11.6,12.4,77,0.00,CLR,,0.20,WeatherDisplay:10.37,2013-06-15 21:10:00,
2013-06-15 16:15:00,80.4,72.5,29.86,SW,225,9.2,10.1,77,0.00,CLR,,0.20,WeatherDisplay:10.37,2013-06-15 21:15:00,
2013-06-15 16:20:00,80.8,73.3,29.86,SSW,202,2.3,6.8,78,0.00,CLR,,0.20,WeatherDisplay:10.37,2013-06-15 21:20:00,
2013-06-15 16:25:00,81.0,73.5,29.86,SSW,202,9.2,9.5,78,0.00,CLR,,0.20,WeatherDisplay:10.37,2013-06-15 21:25:00,
2013-06-15 16:30:00,81.3,73.8,29.86,SW,225,3.5,3.5,78,0.00,CLR,,0.20,WeatherDisplay:10.37,2013-06-15 21:30:00,
2013-06-15 16:35:00,81.9,74.7,29.86,WSW,248,2.3,4.8,79,0.00,CLR,,0.20,WeatherDisplay:10.37,2013-06-15 21:35:00,
2013-06-15 16:40:00,82.0,74.9,29.86,SW,225,11.5,11.9,79,0.00,CLR,,0.20,WeatherDisplay:10.37,2013-06-15 21:40:00,
2013-06-15 16:45:00,82.6,75.0,29.86,SW,225,11.1,11.6,78,0.00,CLR,,0.20,WeatherDisplay:10.37,2013-06-15 21:45:00,
2013-06-15 16:50:00,83.3,75.7,29.86,SSW,202,12.7,12.7,78,0.00,CLR,,0.20,WeatherDisplay:10.37,2013-06-15 21:50:00,
2013-06-15 16:55:00,83.7,75.3,29.86,WSW,248,10.4,10.4,76,0.00,CLR,,0.20,WeatherDisplay:10.37,2013-06-15 21:55:00,
2013-06-15 17:00:00,83.8,75.5,29.86,SW,225,5.8,6.5,76,0.00,CLR,,0.20,WeatherDisplay:10.37,2013-06-15 22:00:00,
2013-06-15 17:05:00,84.2,75.8,29.86,SSW,202,4.6,4.8,76,0.00,CLR,,0.20,WeatherDisplay:10.37,2013-06-15 22:05:00,
2013-06-15 17:10:00,84.6,75.8,29.86,SSW,202,9.2,9.2,75,0.00,CLR,,0.20,WeatherDisplay:10.37,2013-06-15 22:10:00,
2013-06-15 17:15:00,85.1,75.9,29.87,WSW,248,11.5,12.0,74,0.00,CLR,,0.20,WeatherDisplay:10.37,2013-06-15 22:15:00,
2013-06-15 17:20:00,85.1,75.9,29.86,WSW,248,10.4,10.4,74,0.00,CLR,,0.20,WeatherDisplay:10.37,2013-06-15 22:20:00,
2013-06-15 17:25:00,85.1,75.5,29.86,West,270,11.5,12.2,73,0.00,CLR,,0.20,WeatherDisplay:10.37,2013-06-15 22:25:00,
2013-06-15 17:30:00,85.8,75.7,29.86,WSW,248,11.9,11.9,72,0.00,CLR,,0.20,WeatherDisplay:10.37,2013-06-15 22:30:00,
2013-06-15 17:35:00,85.8,75.3,29.86,WSW,248,13.8,13.8,71,0.00,CLR,,0.20,WeatherDisplay:10.37,2013-06-15 22:35:00,
2013-06-15 17:40:00,86.0,74.6,29.86,WSW,248,16.1,16.8,69,0.00,CLR,,0.20,WeatherDisplay:10.37,2013-06-15 22:40:00,
2013-06-15 17:45:00,86.0,73.8,29.85,WSW,248,10.8,10.9,67,0.00,CLR,,0.20,WeatherDisplay:10.37,2013-06-15 22:45:00,
2013-06-15 17:50:00,86.0,73.3,29.86,West,270,6.9,6.9,66,0.00,CLR,,0.20,WeatherDisplay:10.37,2013-06-15 22:50:00,
2013-06-15 17:55:00,85.8,72.7,29.86,West,270,15.4,16.5,65,0.00,CLR,,0.20,WeatherDisplay:10.37,2013-06-15 22:55:00,
2013-06-15 18:00:00,85.5,72.3,29.86,West,270,11.6,11.6,65,0.00,CLR,,0.20,WeatherDisplay:10.37,2013-06-15 23:00:00,
2013-06-15 18:05:00,85.1,72.0,29.85,West,270,9.2,9.3,65,0.00,CLR,,0.20,WeatherDisplay:10.37,2013-06-15 23:05:00,
2013-06-15 18:10:00,84.9,72.7,29.85,West,270,5.8,5.8,67,0.00,CLR,,0.20,WeatherDisplay:10.37,2013-06-15 23:10:00,
2013-06-15 18:15:00,84.7,73.0,29.85,West,270,6.9,6.9,68,0.00,CLR,,0.20,WeatherDisplay:10.37,2013-06-15 23:15:00,
2013-06-15 18:20:00,84.9,73.2,29.85,West,270,10.5,11.3,68,0.00,CLR,,0.20,WeatherDisplay:10.37,2013-06-15 23:20:00,
2013-06-15 18:25:00,84.7,73.0,29.85,WSW,248,8.1,8.1,68,0.00,CLR,,0.20,WeatherDisplay:10.37,2013-06-15 23:25:00,
2013-06-15 18:30:00,84.7,73.0,29.85,WSW,248,3.5,3.5,68,0.00,CLR,,0.20,WeatherDisplay:10.37,2013-06-15 23:30:00,
2013-06-15 18:35:00,84.6,72.8,29.85,WSW,248,10.4,10.4,68,0.00,CLR,,0.20,WeatherDisplay:10.37,2013-06-15 23:35:00,
2013-06-15 18:40:00,84.6,72.4,29.85,WSW,248,11.9,12.7,67,0.00,CLR,,0.20,WeatherDisplay:10.37,2013-06-15 23:40:00,
2013-06-15 18:45:00,84.4,72.7,29.85,West,270,7.3,7.6,68,0.00,CLR,,0.20,WeatherDisplay:10.37,2013-06-15 23:45:00,
2013-06-15 18:50:00,84.4,72.7,29.85,WSW,248,9.5,10.1,68,0.00,CLR,,0.20,WeatherDisplay:10.37,2013-06-15 23:50:00,
2013-06-15 18:55:00,84.0,72.3,29.85,WSW,248,6.9,7.2,68,0.00,CLR,,0.20,WeatherDisplay:10.37,2013-06-15 23:55:00,
2013-06-15 19:00:00,83.8,72.1,29.86,WSW,248,10.4,10.4,68,0.00,CLR,,0.20,WeatherDisplay:10.37,2013-06-16 00:00:00,
2013-06-15 19:05:00,83.7,72.0,29.86,West,270,8.1,8.1,68,0.00,CLR,,0.20,WeatherDisplay:10.37,2013-06-16 00:05:00,
2013-06-15 19:10:00,83.5,72.2,29.86,WSW,248,8.1,8.1,69,0.00,CLR,,0.20,WeatherDisplay:10.37,2013-06-16 00:10:00,
2013-06-15 19:15:00,83.5,72.7,29.86,WSW,248,4.1,4.1,70,0.00,CLR,,0.20,WeatherDisplay:10.37,2013-06-16 00:15:00,
2013-06-15 19:20:00,83.7,72.8,29.86,WSW,248,5.9,6.4,70,0.00,CLR,,0.20,WeatherDisplay:10.37,2013-06-16 00:20:00,
2013-06-15 19:25:00,83.5,72.2,29.86,WSW,248,0.0,0.0,69,0.00,CLR,,0.20,WeatherDisplay:10.37,2013-06-16 00:25:00,
2013-06-15 19:30:00,83.5,72.7,29.86,WSW,248,0.0,0.0,70,0.00,CLR,,0.20,WeatherDisplay:10.37,2013-06-16 00:30:00,
2013-06-15 19:35:00,83.3,72.5,29.86,SW,225,0.0,0.0,70,0.00,CLR,,0.20,WeatherDisplay:10.37,2013-06-16 00:35:00,
2013-06-15 19:40:00,83.3,72.9,29.86,WSW,248,0.0,0.0,71,0.00,CLR,,0.20,WeatherDisplay:10.37,2013-06-16 00:40:00,
2013-06-15 19:45:00,83.3,72.5,29.87,WSW,248,2.3,2.3,70,0.00,CLR,,0.20,WeatherDisplay:10.37,2013-06-16 00:45:00,
2013-06-15 19:50:00,83.5,72.7,29.87,SW,225,5.8,0.0,70,0.00,CLR,,0.20,WeatherDisplay:10.37,2013-06-16 00:50:00,
2013-06-15 19:55:00,83.3,72.9,29.87,SW,225,0.0,0.0,71,0.00,CLR,,0.20,WeatherDisplay:10.37,2013-06-16 00:55:00,
2013-06-15 20:00:00,83.1,72.7,29.87,SW,225,0.0,0.0,71,0.00,CLR,,0.20,WeatherDisplay:10.37,2013-06-16 01:00:00,
2013-06-15 20:05:00,83.1,73.2,29.88,WSW,248,0.0,0.0,72,0.00,CLR,,0.20,WeatherDisplay:10.37,2013-06-16 01:05:00,
2013-06-15 20:10:00,82.9,73.0,29.88,WSW,248,0.0,0.0,72,0.00,CLR,,0.20,WeatherDisplay:10.37,2013-06-16 01:10:00,
2013-06-15 20:15:00,82.8,72.8,29.88,SW,225,0.0,0.0,72,0.00,CLR,,0.20,WeatherDisplay:10.37,2013-06-16 01:15:00,
2013-06-15 20:20:00,82.0,72.1,29.88,WSW,248,0.0,0.0,72,0.00,CLR,,0.20,WeatherDisplay:10.37,2013-06-16 01:20:00,
2013-06-15 20:25:00,81.5,72.0,29.88,SW,225,0.0,0.0,73,0.00,CLR,,0.20,WeatherDisplay:10.37,2013-06-16 01:25:00,
2013-06-15 20:30:00,81.0,71.5,29.89,SW,225,0.0,0.0,73,0.00,CLR,,0.20,WeatherDisplay:10.37,2013-06-16 01:30:00,
2013-06-15 20:35:00,80.4,71.4,29.89,SW,225,0.0,0.0,74,0.00,CLR,,0.20,WeatherDisplay:10.37,2013-06-16 01:35:00,
2013-06-15 20:40:00,79.7,70.7,29.89,SW,225,0.0,0.0,74,0.00,CLR,,0.20,WeatherDisplay:10.37,2013-06-16 01:40:00,
2013-06-15 20:45:00,79.2,70.9,29.89,SSW,202,0.0,0.0,76,0.00,CLR,,0.20,WeatherDisplay:10.37,2013-06-16 01:45:00,
2013-06-15 20:50:00,79.0,71.2,29.89,SW,225,0.0,0.0,77,0.00,CLR,,0.20,WeatherDisplay:10.37,2013-06-16 01:50:00,
2013-06-15 20:55:00,78.3,70.1,29.90,SW,225,9.2,9.2,76,0.00,CLR,,0.20,WeatherDisplay:10.37,2013-06-16 01:55:00,
2013-06-15 21:00:00,77.9,69.3,29.90,SSW,202,6.9,6.9,75,0.00,CLR,,0.20,WeatherDisplay:10.37,2013-06-16 02:00:00,
2013-06-15 21:05:00,77.9,69.3,29.90,SW,225,7.0,7.5,75,0.00,CLR,,0.20,WeatherDisplay:10.37,2013-06-16 02:05:00,
2013-06-15 21:10:00,77.4,69.2,29.90,South,180,5.8,5.8,76,0.00,CLR,,0.20,WeatherDisplay:10.37,2013-06-16 02:10:00,
2013-06-15 21:15:00,77.2,69.4,29.90,SSW,202,10.4,10.7,77,0.00,CLR,,0.20,WeatherDisplay:10.37,2013-06-16 02:15:00,
2013-06-15 21:20:00,76.6,68.9,29.90,SSW,202,14.6,14.6,77,0.00,CLR,,0.20,WeatherDisplay:10.37,2013-06-16 02:20:00,
2013-06-15 21:25:00,76.1,68.4,29.89,SW,225,15.0,15.0,77,0.00,CLR,,0.20,WeatherDisplay:10.37,2013-06-16 02:25:00,
2013-06-15 21:30:00,75.9,67.8,29.89,SSW,202,18.7,20.0,76,0.00,CLR,,0.20,WeatherDisplay:10.37,2013-06-16 02:30:00,
2013-06-15 21:35:00,75.0,67.7,29.89,SW,225,10.4,11.3,78,0.00,CLR,,0.20,WeatherDisplay:10.37,2013-06-16 02:35:00,
2013-06-15 21:40:00,74.3,67.4,29.90,SW,225,9.2,9.8,79,0.00,CLR,,0.20,WeatherDisplay:10.37,2013-06-16 02:40:00,
2013-06-15 21:45:00,74.1,67.2,29.91,SSW,202,13.8,13.8,79,0.00,CLR,,0.20,WeatherDisplay:10.37,2013-06-16 02:45:00,
2013-06-15 21:50:00,73.9,67.7,29.92,SSW,202,10.4,10.9,81,0.00,CLR,,0.20,WeatherDisplay:10.37,2013-06-16 02:50:00,
2013-06-15 21:55:00,73.2,67.4,29.91,SSW,202,12.7,12.7,82,0.00,CLR,,0.20,WeatherDisplay:10.37,2013-06-16 02:55:00,
2013-06-15 22:00:00,72.9,67.4,29.92,SSW,202,10.4,10.4,83,0.00,CLR,,0.20,WeatherDisplay:10.37,2013-06-16 03:00:00,
2013-06-15 22:05:00,72.5,67.4,29.92,SW,225,13.5,13.5,84,0.00,CLR,,0.20,WeatherDisplay:10.37,2013-06-16 03:05:00,
2013-06-15 22:10:00,72.3,67.9,29.92,SSW,202,8.1,8.1,86,0.00,CLR,,0.20,WeatherDisplay:10.37,2013-06-16 03:10:00,
2013-06-15 22:15:00,72.0,67.5,29.92,South,180,6.9,6.9,86,0.00,CLR,,0.20,WeatherDisplay:10.37,2013-06-16 03:15:00,
2013-06-15 22:20:00,71.8,67.7,29.92,SSW,202,8.1,8.7,87,0.00,CLR,,0.20,WeatherDisplay:10.37,2013-06-16 03:20:00,
2013-06-15 22:25:00,71.6,67.5,29.92,SSW,202,4.6,4.6,87,0.00,CLR,,0.20,WeatherDisplay:10.37,2013-06-16 03:25:00,
2013-06-15 22:30:00,71.2,67.5,29.92,South,180,0.3,0.3,88,0.00,CLR,,0.20,WeatherDisplay:10.37,2013-06-16 03:30:00,
2013-06-15 22:35:00,71.1,67.3,29.92,SW,225,2.4,2.4,88,0.00,CLR,,0.20,WeatherDisplay:10.37,2013-06-16 03:35:00,
2013-06-15 22:40:00,71.1,67.7,29.92,SSW,202,0.0,0.0,89,0.00,CLR,,0.20,WeatherDisplay:10.37,2013-06-16 03:40:00,
2013-06-15 22:45:00,70.9,67.5,29.93,SSW,202,2.3,0.0,89,0.00,CLR,,0.20,WeatherDisplay:10.37,2013-06-16 03:45:00,
2013-06-15 22:50:00,70.7,67.3,29.94,SSW,202,0.0,0.0,89,0.00,CLR,,0.20,WeatherDisplay:10.37,2013-06-16 03:50:00,
2013-06-15 22:55:00,70.5,67.8,29.93,SSW,202,0.0,0.0,91,0.00,CLR,,0.20,WeatherDisplay:10.37,2013-06-16 03:55:00,
2013-06-15 23:00:00,70.5,67.8,29.93,SSW,202,0.0,0.0,91,0.00,CLR,,0.20,WeatherDisplay:10.37,2013-06-16 04:00:00,
2013-06-15 23:01:00,70.3,67.6,29.93,SSW,202,0.0,0.0,91,0.00,CLR,,0.20,WeatherDisplay:10.37,2013-06-16 04:01:00,
2013-06-15 23:06:00,70.2,67.4,29.93,SSW,202,0.0,0.0,91,0.00,CLR,,0.20,WeatherDisplay:10.37,2013-06-16 04:06:00,
2013-06-15 23:11:00,70.0,67.5,29.93,SSW,202,0.0,0.0,92,0.00,CLR,,0.20,WeatherDisplay:10.37,2013-06-16 04:11:00,
2013-06-15 23:16:00,70.0,67.5,29.93,SW,225,4.9,4.9,92,0.00,CLR,,0.20,WeatherDisplay:10.37,2013-06-16 04:16:00,
2013-06-15 23:21:00,70.0,67.5,29.93,SSW,202,0.0,0.0,92,0.00,CLR,,0.20,WeatherDisplay:10.37,2013-06-16 04:21:00,
2013-06-15 23:26:00,70.0,67.5,29.93,SSW,202,6.9,6.9,92,0.00,CLR,,0.20,WeatherDisplay:10.37,2013-06-16 04:26:00,
2013-06-15 23:31:00,69.8,67.4,29.92,SSW,202,0.0,0.0,92,0.00,CLR,,0.20,WeatherDisplay:10.37,2013-06-16 04:31:00,
2013-06-15 23:36:00,69.4,67.3,29.92,SW,225,6.9,7.5,93,0.00,CLR,,0.20,WeatherDisplay:10.37,2013-06-16 04:36:00,
2013-06-15 23:41:00,69.4,67.3,29.92,SSW,202,0.0,0.0,93,0.00,CLR,,0.20,WeatherDisplay:10.37,2013-06-16 04:41:00,
2013-06-15 23:46:00,69.3,67.1,29.93,SW,225,0.0,0.0,93,0.00,CLR,,0.20,WeatherDisplay:10.37,2013-06-16 04:46:00,
2013-06-15 23:51:00,69.3,67.5,29.93,SSW,202,0.0,0.0,94,0.00,CLR,,0.20,WeatherDisplay:10.37,2013-06-16 04:51:00,
2013-06-15 23:56:00,69.1,67.3,29.93,SSW,202,0.0,0.0,94,0.00,CLR,,0.20,WeatherDisplay:10.37,2013-06-16 04:56:00,